This is the latest recevied weather packets stored in our database for station/object IT9CNT. If no packets are shown the sender has not sent any weather packets the latest 1 day(s).
| Time | Temp. | Humidity | Pressure | Rain* | Wind** | Luminosity | Snow |
|---|---|---|---|---|---|---|---|
| 1778040783 | 15.56° C | 75% | 1011.7 hPa | 0 mm | 2.24 m/s, 80° | - | - |
| 1778040723 | 15.56° C | 75% | 1011.8 hPa | 0 mm | 2.68 m/s, 74° | - | - |
| 1778040663 | 15.56° C | 75% | 1011.8 hPa | 0 mm | 2.68 m/s, 71° | - | - |
| 1778040603 | 15.56° C | 75% | 1011.6 hPa | 0 mm | 2.68 m/s, 72° | - | - |
| 1778040543 | 15.56° C | 75% | 1011.6 hPa | 0 mm | 2.24 m/s, 78° | - | - |
| 1778040483 | 15.56° C | 75% | 1011.9 hPa | 0 mm | 2.24 m/s, 78° | - | - |
| 1778040423 | 15.56° C | 75% | 1012 hPa | 0 mm | 2.24 m/s, 80° | - | - |
| 1778040363 | 15.56° C | 75% | 1011.7 hPa | 0 mm | 2.24 m/s, 80° | - | - |
| 1778040303 | 15.56° C | 75% | 1012 hPa | 0 mm | 2.24 m/s, 84° | - | - |
| 1778040243 | 15.56° C | 75% | 1011.6 hPa | 0 mm | 2.24 m/s, 84° | - | - |
| 1778040183 | 15.56° C | 75% | 1011.8 hPa | 0 mm | 2.24 m/s, 81° | - | - |
| 1778040123 | 15.56° C | 75% | 1011.7 hPa | 0 mm | 2.24 m/s, 82° | - | - |
| 1778040063 | 15.56° C | 75% | 1011.8 hPa | 0 mm | 2.24 m/s, 85° | - | - |
| 1778040003 | 15.56° C | 75% | 1011.7 hPa | 0 mm | 2.24 m/s, 81° | - | - |
| 1778039943 | 15.56° C | 75% | 1011.5 hPa | 0 mm | 2.24 m/s, 80° | - | - |
| 1778039884 | 15.56° C | 76% | 1011.8 hPa | 0 mm | 2.68 m/s, 82° | - | - |
| 1778039823 | 15.56° C | 76% | 1011.9 hPa | 0 mm | 2.68 m/s, 80° | - | - |
| 1778039763 | 15.56° C | 76% | 1012 hPa | 0 mm | 2.68 m/s, 80° | - | - |
| 1778039703 | 15.56° C | 76% | 1011.9 hPa | 0 mm | 2.68 m/s, 80° | - | - |
| 1778039643 | 15.56° C | 76% | 1011.9 hPa | 0 mm | 2.68 m/s, 81° | - | - |
| 1778039583 | 15.56° C | 76% | 1012 hPa | 0 mm | 3.13 m/s, 79° | - | - |
| 1778039523 | 15.56° C | 76% | 1011.8 hPa | 0 mm | 3.13 m/s, 79° | - | - |
| 1778039463 | 15.56° C | 76% | 1011.9 hPa | 0 mm | 3.13 m/s, 76° | - | - |
| 1778039403 | 15.56° C | 76% | 1011.7 hPa | 0 mm | 3.13 m/s, 75° | - | - |
| 1778039343 | 15.56° C | 76% | 1011.7 hPa | 0 mm | 3.13 m/s, 74° | - | - |
* Rain latest hour (hover to see other rain measurements)
** Current wind speed in m/s (hover to see current wind gust speed)